TimeIST,TemperatureF,Dew PointF,Humidity,Sea Level PressureIn,VisibilityMPH,Wind Direction,Wind SpeedMPH,Gust SpeedMPH,PrecipitationIn,Events,Conditions,WindDirDegrees,DateUTC
12:10 AM,57.2,46.4,67,29.92,3.1,Calm,Calm,-,N/A,,Haze,0,2012-12-29 18:40:00
1:10 AM,57.2,48.2,72,29.92,3.1,NNW,2.3,-,N/A,,Haze,340,2012-12-29 19:40:00
2:10 AM,57.2,46.4,67,29.92,3.1,NNW,2.3,-,N/A,,Haze,340,2012-12-29 20:40:00
3:10 AM,59.0,48.2,67,29.89,3.1,Calm,Calm,-,N/A,,Haze,0,2012-12-29 21:40:00
4:10 AM,55.4,44.6,67,29.89,3.1,Calm,Calm,-,N/A,,Haze,0,2012-12-29 22:40:00
5:10 AM,53.6,44.6,72,29.89,3.1,Calm,Calm,-,N/A,,Haze,0,2012-12-29 23:40:00
5:30 AM,51,49,92,29.91,2,Calm,Calm,,,,Haze,,2012-12-30 00:00:00
8:10 AM,60.8,50.0,68,29.95,1.9,NNE,2.3,-,N/A,,Haze,30,2012-12-30 02:40:00
8:30 AM,61,54,70,29.96,1,Calm,Calm,,,,Haze,,2012-12-30 03:00:00
10:10 AM,73.4,51.8,47,29.98,2.5,East,3.5,-,N/A,,Haze,80,2012-12-30 04:40:00
11:10 AM,78.8,53.6,42,29.98,2.5,ESE,4.6,-,N/A,,Haze,110,2012-12-30 05:40:00
11:30 AM,78,63,50,29.93,2,ESE,3.5,,,,Haze,110,2012-12-30 06:00:00
12:10 PM,80.6,51.8,37,29.95,2.5,East,4.6,-,N/A,,Haze,80,2012-12-30 06:40:00
1:10 PM,84.2,50.0,30,29.92,3.1,ENE,2.3,-,N/A,,Haze,70,2012-12-30 07:40:00
2:10 PM,84.2,51.8,33,29.89,3.7,ESE,3.5,-,N/A,,Unknown,120,2012-12-30 08:40:00
2:30 PM,84,67,46,29.83,2,Calm,Calm,,,,,,2012-12-30 09:00:00
3:10 PM,86.0,53.6,33,29.86,3.7,East,2.3,-,N/A,,Unknown,90,2012-12-30 09:40:00
4:10 PM,84.2,51.8,33,29.86,3.7,ESE,3.5,-,N/A,,Unknown,120,2012-12-30 10:40:00
5:10 PM,80.6,53.6,39,29.86,3.1,Calm,Calm,-,N/A,,Haze,0,2012-12-30 11:40:00
5:30 PM,75,62,55,29.84,2,Calm,Calm,,,,Haze,,2012-12-30 12:00:00
7:10 PM,71.6,51.8,50,29.92,-9999.0,Calm,Calm,-,N/A,,Haze,0,2012-12-30 13:40:00
8:10 PM,68.0,51.8,56,29.92,1.9,Calm,Calm,-,N/A,,Haze,0,2012-12-30 14:40:00
8:30 PM,63,58,77,29.92,1,Calm,Calm,,,,Haze,,2012-12-30 15:00:00
9:10 PM,66.2,53.6,64,29.92,1.9,Calm,Calm,-,N/A,,Haze,0,2012-12-30 15:40:00
10:10 PM,64.4,51.8,64,29.92,1.9,Calm,Calm,-,N/A,,Haze,0,2012-12-30 16:40:00
11:10 PM,62.6,51.8,68,29.92,1.9,Calm,Calm,-,N/A,,Haze,0,2012-12-30 17:40:00
11:30 PM,59,56,85,29.91,1,Calm,Calm,,,,Haze,,2012-12-30 18:00:00